7 * 24
多渠道服务支持
TIANHUI 4B 是中国高分辨率对地观测系统的重要组成部分,由航天科技集团研制。该卫星具备高分辨率、多光谱和宽覆盖能力,主要用于国土测绘、环境监测、灾害预警和城市规划等领域。其先进成像技术和稳定运行能力,显著提升了中国遥感数据获取与应用水平,为国家资源管理和应急响应提供了有力支持。
中国
(CN)
| 数据来源 | 国际轨道数据 |
| 星历时间: | 2025-12-15T05:42:23+0800 20小时前 查看轨道信息 |
| 半长轴: | 6813.959km |
| 偏心率: | 0.0011746 |
| 轨道倾角: | 88.976° |
| 近地点辐角 | 83.889° |
| 升交点赤经 | 348.793° |
| 平近点角 | 276.371° |
| 近地点: | 427.82km |
| 远地点: | 443.828km |
| 周期: | 93.295分钟 |
| 每日圈数: | 15.43489 |